Location: Mesa Vista Observatory
(35.5777°N, 105.6987°W)
Time: 05:06:04
(UTC-06:00)

Transit 4A - All Passes

Search period start: 26 September 2020 00:00
Search period end: 06 October 2020 00:00
Orbit: 863 x 982 km, 66.8° (Epoch: 25 September)

Date Brightness Start Highest point End Pass type
(mag) Time Alt. Az. Time Alt. Az. Time Alt. Az.
26 Sep - 01:15:33 10° WNW 01:18:20 13° NW 01:21:09 10° NNW visible
26 Sep - 06:46:46 10° NNE 06:49:35 13° NE 06:52:23 10° ENE daylight
26 Sep - 08:30:42 10° NNW 08:37:07 71° ENE 08:43:25 10° SE daylight
26 Sep - 10:19:00 10° WNW 10:22:46 16° WSW 10:26:31 10° SW daylight
26 Sep - 21:49:41 10° SSE 21:54:18 23° ESE 21:59:03 10° NE night (unlit)
26 Sep - 23:34:22 10° SW 23:40:14 49° WNW 23:46:19 10° NNE night (unlit)
27 Sep - 06:55:02 10° N 06:59:22 19° NE 07:03:39 10° E daylight
27 Sep - 08:40:02 10° NNW 08:46:27 79° WSW 08:52:45 10° SSE daylight
27 Sep - 21:57:58 10° S 22:03:24 36° ESE 22:09:01 10° NE night (unlit)
27 Sep - 23:44:15 10° WSW 23:49:44 34° NW 23:55:23 10° N visible
28 Sep - 07:03:44 10° N 07:09:01 26° NE 07:14:14 10° ESE daylight
28 Sep - 08:49:30 10° NW 08:55:41 52° WSW 09:01:46 10° S daylight
28 Sep - 22:06:41 10° S 22:12:35 56° ESE 22:18:40 10° NE night (unlit)
28 Sep - 23:54:30 10° WSW 23:59:19 24° NW 00:04:16 10° N visible
29 Sep - 07:12:41 10° NNW 07:18:36 37° NE 07:24:25 10° ESE daylight
29 Sep - 08:59:12 10° NW 09:04:52 34° WSW 09:10:25 10° S daylight
29 Sep - 20:36:16 10° ESE 20:36:30 10° E 20:36:44 10° E night (unlit)
29 Sep - 22:15:45 10° SSW 22:21:49 86° ESE 22:28:08 10° NNE night (unlit)
30 Sep - 00:05:13 10° W 00:09:01 17° NW 00:12:53 10° N visible
30 Sep - 05:39:44 10° NE 05:40:13 10° NE 05:40:42 10° NE visible
30 Sep - 07:21:46 10° NNW 07:28:04 55° ENE 07:34:15 10° SE daylight
30 Sep - 09:09:14 10° WNW 09:13:57 22° WSW 09:18:37 10° SSW daylight
30 Sep - 20:41:40 10° SE 20:45:29 17° ESE 20:49:21 10° ENE night (unlit)
30 Sep - 22:25:08 10° SW 22:31:10 64° WNW 22:37:25 10° NNE night (unlit)
01 Oct - 00:16:52 10° WNW 00:18:49 11° NW 00:20:49 10° NNW visible
01 Oct - 05:46:37 10° N 05:50:04 15° NE 05:53:30 10° ENE visible
01 Oct - 07:31:00 10° NNW 07:37:27 81° ENE 07:43:45 10° SSE daylight
01 Oct - 09:20:00 10° WNW 09:22:58 14° WSW 09:25:56 10° SW daylight
01 Oct - 20:49:32 10° SSE 20:54:32 27° ESE 20:59:40 10° NE night (unlit)
01 Oct - 22:34:49 10° SW 22:40:36 43° WNW 22:46:34 10° NNE night (unlit)
02 Oct - 05:55:05 10° N 05:59:49 21° NE 06:04:29 10° E visible
02 Oct - 07:40:23 10° NNW 07:46:45 68° WSW 07:52:59 10° SSE daylight
02 Oct - 20:58:00 10° S 21:03:39 42° ESE 21:09:29 10° NE visible
02 Oct - 22:44:50 10° WSW 22:50:08 30° NW 22:55:34 10° N night (unlit)
03 Oct - 06:03:54 10° N 06:09:27 30° NE 06:14:54 10° ESE visible
03 Oct - 07:49:56 10° NW 07:55:58 45° WSW 08:01:53 10° S daylight
03 Oct - 21:06:51 10° SSW 21:12:51 66° ESE 21:19:04 10° NNE visible
03 Oct - 22:55:14 10° W 22:59:45 21° NW 23:04:22 10° N night (unlit)
04 Oct - 06:12:54 10° NNW 06:18:58 43° ENE 06:24:56 10° SE visible
04 Oct - 07:59:43 10° NW 08:05:05 29° WSW 08:10:23 10° SSW daylight
04 Oct - 19:34:15 10° SE 19:36:41 13° E 19:39:08 10° ENE visible
04 Oct - 21:16:01 10° SSW 21:22:07 83° WNW 21:28:27 10° NNE visible
04 Oct - 23:06:10 10° WNW 23:09:29 15° NW 23:12:51 10° NNW night (unlit)
05 Oct - 04:38:36 10° NNE 04:40:44 12° NE 04:42:51 10° ENE visible
05 Oct - 06:22:02 10° NNW 06:28:25 63° ENE 06:34:39 10° SE visible
05 Oct - 08:09:56 10° WNW 08:14:09 19° WSW 08:18:19 10° SW daylight
05 Oct - 19:41:20 10° SSE 19:45:40 21° ESE 19:50:06 10° ENE visible
05 Oct - 21:25:31 10° SW 21:31:30 56° WNW 21:37:41 10° NNE visible
